EW7469 Weather Reports


Display with metric or nautical units.
time (UTC)temp
F
wind
direction
speed
MPH
gust
MPH
rain 1hr
in
rain 24hr
in
rain mn
in
humidity
%
barometer
mb
20220124062839 42 307 0.0 1.0 0.00 0.00 0.00 90 1015.6
20220124062356 42 306 0.0 1.0 0.00 0.00 0.00 90 1015.6
20220124061837 42 306 0.0 1.0 0.00 0.00 0.00 90 1015.6
20220124061349 42 310 0.0 1.0 0.00 0.00 0.00 90 1015.6
20220124060857 42 309 0.0 1.0 0.00 0.00 0.00 89 1015.6
20220124060333 42 311 0.0 0.0 0.00 0.00 0.00 90 1015.6
20220124055840 42 311 0.0 2.0 0.00 0.00 0.00 89 1015.6
20220124055334 42 311 0.0 2.0 0.00 0.00 0.00 89 1015.6
20220124054842 43 295 0.0 1.0 0.00 0.00 0.00 89 1015.6
20220124054345 43 295 0.0 0.0 0.00 0.00 0.00 89 1015.7
20220124053854 43 295 0.0 1.0 0.00 0.00 0.00 89 1015.7
20220124053333 43 295 0.0 1.0 0.00 0.00 0.00 89 1015.7
20220124052846 43 294 0.0 0.0 0.00 0.00 0.00 89 1015.7
20220124052354 43 294 0.0 0.0 0.00 0.00 0.00 89 1015.7
20220124051836 43 294 0.0 0.0 0.00 0.00 0.00 88 1015.7
20220124051344 44 294 0.0 0.0 0.00 0.00 0.00 88 1015.7
20220124050847 44 294 0.0 0.0 0.00 0.00 0.00 89 1015.7
20220124050335 44 294 0.0 1.0 0.00 0.00 0.00 88 1015.7
20220124045838 44 294 0.0 1.0 0.00 0.00 0.00 88 1015.7
20220124045354 44 293 0.0 0.0 0.00 0.00 0.00 88 1015.7
20220124044842 44 295 0.0 0.0 0.00 0.00 0.00 87 1015.7
20220124044402 44 295 0.0 0.0 0.00 0.00 0.00 87 1016.0
20220124043838 45 295 0.0 0.0 0.00 0.00 0.00 87 1016.0
20220124043343 45 295 0.0 0.0 0.00 0.00 0.00 86 1016.0
20220124042858 45 295 0.0 0.0 0.00 0.00 0.00 86 1016.1
20220124042344 45 295 0.0 0.0 0.00 0.00 0.00 86 1016.1
20220124041833 45 295 0.0 0.0 0.00 0.00 0.00 86 1016.1
20220124041336 45 295 0.0 0.0 0.00 0.00 0.00 86 1016.1
20220124040845 45 295 0.0 0.0 0.00 0.00 0.00 86 1016.1
20220124040333 46 295 0.0 0.0 0.00 0.00 0.00 86 1016.1
20220124035848 46 295 0.0 0.0 0.00 0.00 0.00 86 1016.1
20220124035356 46 296 0.0 0.0 0.00 0.00 0.00 86 1016.1
20220124034833 46 296 0.0 0.0 0.00 0.00 0.00 85 1016.1
20220124034342 46 296 0.0 0.0 0.00 0.00 0.00 85 1016.2
20220124033849 46 296 0.0 0.0 0.00 0.00 0.00 85 1016.2
20220124033337 47 297 0.0 0.0 0.00 0.00 0.00 84 1016.2
20220124032839 47 297 0.0 2.0 0.00 0.00 0.00 84 1016.4
20220124032347 47 296 0.0 2.0 0.00 0.00 0.00 84 1016.4
20220124031854 47 293 0.0 1.0 0.00 0.00 0.00 84 1016.4
20220124031342 47 294 0.0 2.0 0.00 0.00 0.00 84 1016.5
20220124030850 48 296 0.0 2.0 0.00 0.00 0.00 83 1016.5
20220124030333 48 284 0.0 2.0 0.00 0.00 0.00 83 1016.5
20220124025859 48 282 0.0 2.0 0.00 0.00 0.00 83 1016.5
20220124025339 48 280 0.0 2.0 0.00 0.00 0.00 83 1016.5
20220124024846 48 282 0.0 2.0 0.00 0.00 0.00 83 1016.5
20220124024334 48 284 0.0 2.0 0.00 0.00 0.00 84 1016.6
20220124023838 48 283 0.0 2.0 0.00 0.00 0.00 85 1016.6
20220124023356 48 258 0.0 3.0 0.00 0.00 0.00 85 1016.6
20220124022843 48 271 0.0 3.0 0.00 0.00 0.00 85 1016.6
20220124022346 48 285 0.0 3.0 0.00 0.00 0.00 85 1016.6
20220124021835 48 297 0.0 3.0 0.00 0.00 0.00 84 1016.6
20220124021353 48 286 1.0 3.0 0.00 0.00 0.00 84 1016.5
20220124020836 48 307 0.0 3.0 0.00 0.00 0.00 85 1016.5
20220124020345 48 297 1.0 3.0 0.00 0.00 0.00 85 1016.5
20220124015850 48 303 0.0 3.0 0.00 0.00 0.00 85 1016.2
20220124015338 49 295 0.0 3.0 0.00 0.00 0.00 84 1016.2
20220124014846 49 301 1.0 4.0 0.00 0.00 0.00 84 1016.2
20220124014353 49 288 1.0 4.0 0.00 0.00 0.00 84 1016.1
20220124013841 49 298 0.0 3.0 0.00 0.00 0.00 84 1016.1
20220124013345 49 326 1.0 3.0 0.00 0.00 0.00 84 1016.1
20220124012844 49 254 1.0 3.0 0.00 0.00 0.00 83 1016.1
20220124012357 49 295 1.0 5.0 0.00 0.00 0.00 83 1016.1
20220124011845 50 282 1.0 5.0 0.00 0.00 0.00 83 1016.1
20220124011352 50 323 0.0 4.0 0.00 0.00 0.00 83 1016.0
20220124010856 50 296 1.0 4.0 0.00 0.00 0.00 83 1016.0
20220124010336 50 262 1.0 4.0 0.00 0.00 0.00 83 1016.0
20220124005852 50 288 1.0 4.0 0.00 0.00 0.00 83 1015.8
20220124005341 50 292 1.0 3.0 0.00 0.00 0.00 83 1015.8
20220124004845 50 305 1.0 4.0 0.00 0.00 0.00 83 1015.8
20220124004353 50 300 1.0 4.0 0.00 0.00 0.00 82 1015.7
20220124003834 50 288 0.0 3.0 0.00 0.00 0.00 82 1015.7
20220124003349 51 285 1.0 4.0 0.00 0.00 0.00 82 1015.7
20220124002856 51 305 2.0 4.0 0.00 0.00 0.00 81 1015.6
20220124002332 51 281 1.0 5.0 0.00 0.00 0.00 81 1015.6
20220124001839 51 285 1.0 5.0 0.00 0.00 0.00 81 1015.6
20220124001352 51 283 0.0 3.0 0.00 0.00 0.00 81 1015.6
20220124000841 52 286 1.0 3.0 0.00 0.00 0.00 81 1015.6
20220124000344 52 275 0.0 2.0 0.00 0.00 0.00 81 1015.6
20220123235837 52 284 0.0 2.0 0.00 0.00 0.00 81 1015.4
20220123235355 52 281 0.0 2.0 0.00 0.00 0.00 80 1015.4
20220123234835 52 277 0.0 3.0 0.00 0.00 0.00 80 1015.4
20220123234341 52 303 0.0 3.0 0.00 0.00 0.00 79 1015.3
20220123233845 52 276 0.0 3.0 0.00 0.00 0.00 78 1015.3
20220123233352 53 276 1.0 4.0 0.00 0.00 0.00 79 1015.3
20220123232832 53 249 1.0 4.0 0.00 0.00 0.00 78 1015.2
20220123232347 53 305 0.0 3.0 0.00 0.00 0.00 79 1015.2
20220123231835 53 305 0.0 3.0 0.00 0.00 0.00 78 1015.2
20220123231338 53 294 1.0 3.0 0.00 0.00 0.00 78 1015.3
20220123230832 53 292 0.0 2.0 0.00 0.00 0.00 77 1015.3
20220123230347 53 254 0.0 4.0 0.00 0.00 0.00 77 1015.3
20220123225855 54 294 0.0 4.0 0.00 0.00 0.00 77 1015.4
20220123225337 54 270 0.0 3.0 0.00 0.00 0.00 77 1015.4
20220123224851 54 274 0.0 2.0 0.00 0.00 0.00 77 1015.4
20220123224339 54 273 0.0 2.0 0.00 0.00 0.00 77 1015.5
20220123223831 54 283 0.0 4.0 0.00 0.00 0.00 77 1015.5
20220123223339 55 282 1.0 4.0 0.00 0.00 0.00 76 1015.5
20220123222844 55 282 0.0 3.0 0.00 0.00 0.00 75 1015.2
20220123222332 55 318 0.0 3.0 0.00 0.00 0.00 75 1015.2
20220123221848 55 280 0.0 4.0 0.00 0.00 0.00 74 1015.2
20220123221356 55 290 1.0 4.0 0.00 0.00 0.00 74 1015.2
20220123220856 56 267 1.0 4.0 0.00 0.00 0.00 73 1015.2
20220123220335 56 287 1.0 4.0 0.00 0.00 0.00 73 1015.2
20220123215850 56 274 0.0 4.0 0.00 0.00 0.00 74 1015.3
20220123215338 57 291 1.0 4.0 0.00 0.00 0.00 73 1015.3
20220123214846 57 300 0.0 3.0 0.00 0.00 0.00 74 1015.3
20220123214351 57 300 1.0 3.0 0.00 0.00 0.00 74 1015.2
20220123213837 57 352 0.0 3.0 0.00 0.00 0.00 74 1015.2
20220123213350 57 281 0.0 3.0 0.00 0.00 0.00 74 1015.2
20220123212837 57 295 0.0 3.0 0.00 0.00 0.00 73 1015.1
20220123212344 58 278 1.0 2.0 0.00 0.00 0.00 73 1015.1
20220123211849 58 266 0.0 1.0 0.00 0.00 0.00 73 1015.1
20220123211335 58 260 0.0 0.0 0.00 0.00 0.00 74 1015.0
20220123210850 58 300 0.0 0.0 0.00 0.00 0.00 73 1015.0
20220123210410 58 307 0.0 0.0 0.00 0.00 0.00 72 1015.0
20220123205852 58 321 0.0 0.0 0.00 0.00 0.00 73 1014.9
20220123205338 58 321 0.0 0.0 0.00 0.00 0.00 73 1014.9
20220123204859 58 321 0.0 0.0 0.00 0.00 0.00 73 1014.9
20220123204345 58 321 0.0 4.0 0.00 0.00 0.00 73 1015.0
20220123203847 58 321 0.0 4.0 0.00 0.00 0.00 73 1015.0
20220123203335 58 336 1.0 3.0 0.00 0.00 0.00 73 1015.0
20220123202849 58 320 0.0 2.0 0.00 0.00 0.00 73 1015.1
20220123202357 58 320 1.0 2.0 0.00 0.00 0.00 72 1015.1
20220123201840 58 291 0.0 1.0 0.00 0.00 0.00 72 1015.1
20220123201344 58 291 0.0 1.0 0.00 0.00 0.00 72 1015.0
20220123200853 58 291 0.0 2.0 0.00 0.00 0.00 72 1015.0
20220123200333 58 291 0.0 2.0 0.00 0.00 0.00 73 1015.0
20220123195849 58 288 0.0 1.0 0.00 0.00 0.00 72 1015.0
20220123195337 58 288 0.0 0.0 0.00 0.00 0.00 72 1015.0
20220123194841 58 288 0.0 0.0 0.00 0.00 0.00 73 1015.0
20220123194348 58 275 0.0 1.0 0.00 0.00 0.00 72 1015.2
20220123193853 58 275 0.0 1.0 0.00 0.00 0.00 72 1015.2
20220123193341 58 270 0.0 0.0 0.00 0.00 0.00 73 1015.2
20220123192843 58 261 0.0 0.0 0.00 0.00 0.00 72 1015.6
20220123192353 58 308 0.0 3.0 0.00 0.00 0.00 74 1015.6
20220123191833 58 333 1.0 3.0 0.00 0.00 0.00 74 1015.6
20220123191353 58 335 0.0 1.0 0.00 0.00 0.00 73 1015.7
20220123190835 58 335 0.0 3.0 0.00 0.00 0.00 74 1015.7
20220123190338 58 330 0.0 3.0 0.00 0.00 0.00 74 1015.7
20220123185845 58 254 0.0 3.0 0.00 0.00 0.00 74 1015.8
20220123185352 58 321 1.0 3.0 0.00 0.00 0.00 73 1015.8
20220123184856 58 250 0.0 4.0 0.00 0.00 0.00 73 1015.8
20220123184333 58 353 1.0 3.0 0.00 0.00 0.00 74 1016.0
20220123183842 58 354 1.0 3.0 0.00 0.00 0.00 74 1016.0
20220123183347 58 327 0.0 4.0 0.00 0.00 0.00 74 1016.0
20220123182836 58 342 0.0 4.0 0.00 0.00 0.00 74 1016.5
20220123182343 58 340 1.0 3.0 0.00 0.00 0.00 74 1016.5
20220123181848 58 323 0.0 4.0 0.00 0.00 0.00 73 1016.5
20220123181345 58 320 1.0 4.0 0.00 0.00 0.00 75 1016.7
20220123180854 58 311 1.0 4.0 0.00 0.00 0.00 74 1016.7
20220123180340 58 289 0.0 3.0 0.00 0.00 0.00 74 1016.7
20220123175844 57 287 0.0 3.0 0.00 0.00 0.00 74 1016.9
20220123175357 57 301 0.0 3.0 0.00 0.00 0.00 76 1016.9
20220123174835 57 290 2.0 3.0 0.00 0.00 0.00 78 1016.9
20220123174346 57 289 0.0 3.0 0.00 0.00 0.00 78 1017.4
20220123173850 56 277 0.0 3.0 0.00 0.00 0.00 78 1017.4
20220123173339 56 297 0.0 4.0 0.00 0.00 0.00 80 1017.4
20220123172845 55 300 1.0 4.0 0.00 0.00 0.00 79 1017.8
20220123172353 55 309 0.0 3.0 0.00 0.00 0.00 81 1017.8
20220123171837 55 288 0.0 6.0 0.00 0.00 0.00 82 1017.8
20220123171341 54 302 2.0 6.0 0.00 0.00 0.00 82 1018.2
20220123170854 54 304 1.0 3.0 0.00 0.00 0.00 81 1018.2
20220123170341 54 294 0.0 3.0 0.00 0.00 0.00 82 1018.2
20220123165833 54 343 1.0 3.0 0.00 0.00 0.00 83 1018.4
20220123165340 54 306 0.0 4.0 0.00 0.00 0.00 83 1018.4
20220123164844 54 359 1.0 4.0 0.00 0.00 0.00 84 1018.4
20220123164352 53 350 0.0 4.0 0.00 0.00 0.00 85 1018.7
20220123163839 53 344 2.0 4.0 0.00 0.00 0.00 85 1018.7
20220123163400 53 293 1.0 4.0 0.00 0.00 0.00 87 1018.7
20220123162840 53 316 0.0 4.0 0.00 0.00 0.00 87 1018.5
20220123162344 53 333 0.0 4.0 0.00 0.00 0.00 87 1018.5
20220123161845 53 337 1.0 4.0 0.00 0.00 0.00 87 1018.5
20220123161354 52 346 1.0 3.0 0.00 0.00 0.00 89 1018.5
20220123160842 52 346 0.0 3.0 0.00 0.00 0.00 88 1018.5
20220123160346 52 352 2.0 3.0 0.00 0.00 0.00 88 1018.5
20220123155834 52 330 1.0 3.0 0.00 0.00 0.00 89 1018.7
20220123155348 52 340 0.0 3.0 0.00 0.00 0.00 89 1018.7
20220123154856 51 351 0.0 3.0 0.00 0.00 0.00 90 1018.7
20220123154343 51 330 0.0 2.0 0.00 0.00 0.00 90 1018.7
20220123153846 51 300 1.0 2.0 0.00 0.00 0.00 90 1018.7
20220123153335 51 328 0.0 4.0 0.00 0.00 0.00 91 1018.7
20220123152849 51 326 1.0 4.0 0.00 0.00 0.00 91 1018.8
20220123152355 51 348 1.0 4.0 0.00 0.00 0.00 92 1018.8
20220123151854 51 329 0.0 4.0 0.00 0.00 0.00 93 1018.8
20220123151355 51 333 0.0 2.0 0.00 0.00 0.00 93 1018.9
20220123150833 50 334 0.0 3.0 0.00 0.00 0.00 94 1018.9
20220123150340 50 333 0.0 3.0 0.00 0.00 0.00 94 1018.9
20220123145849 50 340 0.0 3.0 0.00 0.00 0.00 94 1018.9
20220123145357 50 347 0.0 2.0 0.00 0.00 0.00 94 1018.9
20220123144838 50 315 0.0 2.0 0.00 0.00 0.00 95 1018.9
20220123144353 50 342 1.0 3.0 0.00 0.00 0.00 94 1018.6
20220123143840 49 324 1.0 3.0 0.00 0.00 0.00 95 1018.6
20220123143352 49 293 0.0 3.0 0.00 0.00 0.00 95 1018.6
20220123142834 49 340 0.0 3.0 0.00 0.00 0.00 95 1018.6
20220123142342 49 317 1.0 3.0 0.00 0.00 0.00 95 1018.6
20220123141857 49 327 1.0 3.0 0.00 0.00 0.00 95 1018.6
20220123141359 49 295 0.0 3.0 0.00 0.00 0.00 96 1018.8
20220123140838 49 333 1.0 3.0 0.00 0.00 0.00 95 1018.8
20220123140341 49 329 0.0 3.0 0.00 0.00 0.00 95 1018.8
20220123135847 49 335 1.0 3.0 0.00 0.00 0.00 96 1019.2
20220123135354 49 340 1.0 4.0 0.00 0.00 0.00 96 1019.2
20220123134842 49 313 1.0 4.0 0.00 0.00 0.00 96 1019.2
20220123134346 49 307 0.0 4.0 0.00 0.00 0.00 96 1018.6
20220123133834 49 307 0.0 4.0 0.00 0.00 0.00 95 1018.6
20220123133349 49 331 2.0 3.0 0.00 0.00 0.00 95 1018.6
20220123132856 49 349 0.0 6.0 0.00 0.00 0.00 95 1018.7
20220123132342 49 330 1.0 6.0 0.00 0.00 0.00 95 1018.7
20220123131859 49 345 1.0 3.0 0.00 0.00 0.00 95 1018.7
20220123131338 49 344 1.0 3.0 0.00 0.00 0.00 95 1018.8
20220123130858 49 316 0.0 4.0 0.00 0.00 0.00 95 1018.8
20220123130338 49 323 0.0 4.0 0.00 0.00 0.00 95 1018.8
20220123125859 49 13 0.0 3.0 0.00 0.00 0.00 95 1018.7
20220123125332 49 330 1.0 3.0 0.00 0.00 0.00 95 1018.7
20220123124841 49 332 0.0 3.0 0.00 0.00 0.00 95 1018.7
20220123124356 49 327 0.0 3.0 0.00 0.00 0.00 95 1018.5
20220123123843 49 337 1.0 3.0 0.00 0.00 0.00 95 1018.5
20220123123332 49 288 1.0 2.0 0.00 0.00 0.00 95 1018.5
20220123122855 49 321 0.0 3.0 0.00 0.00 0.00 95 1018.3
20220123122335 49 319 1.0 5.0 0.00 0.00 0.00 95 1018.3
20220123121850 49 333 1.0 5.0 0.00 0.00 0.00 95 1018.3
20220123121357 49 339 2.0 4.0 0.00 0.00 0.00 95 1018.2
20220123120833 49 319 1.0 3.0 0.00 0.00 0.00 95 1018.2
20220123120341 49 320 1.0 3.0 0.00 0.00 0.00 95 1018.2
20220123115855 49 326 1.0 3.0 0.00 0.00 0.00 95 1018.2
20220123115342 49 325 1.0 3.0 0.00 0.00 0.00 95 1018.2
20220123114849 49 319 1.0 2.0 0.00 0.00 0.00 95 1018.2
20220123114343 49 326 1.0 4.0 0.00 0.00 0.00 95 1018.1
20220123113850 49 349 2.0 4.0 0.00 0.00 0.00 94 1018.1
20220123113357 50 310 2.0 4.0 0.00 0.00 0.00 94 1018.1
20220123112836 50 353 0.0 4.0 0.00 0.00 0.00 95 1017.7
20220123112341 50 333 1.0 3.0 0.00 0.00 0.00 95 1017.7
20220123111857 50 326 0.0 3.0 0.00 0.00 0.00 95 1017.7
20220123111336 50 333 0.0 2.0 0.00 0.00 0.00 95 1017.7
20220123110843 50 325 0.0 4.0 0.00 0.00 0.00 95 1017.7
20220123110340 50 338 2.0 4.0 0.00 0.00 0.00 95 1017.7
20220123105846 50 313 1.0 3.0 0.00 0.00 0.00 95 1017.7
20220123105354 50 345 0.0 3.0 0.00 0.00 0.00 95 1017.7
20220123104841 50 311 1.0 2.0 0.00 0.00 0.00 95 1017.7
20220123104345 50 306 0.0 3.0 0.00 0.00 0.00 95 1017.7
20220123103834 50 340 0.0 3.0 0.00 0.00 0.00 94 1017.7
20220123103342 50 326 1.0 3.0 0.00 0.00 0.00 94 1017.7
20220123102850 50 334 1.0 3.0 0.00 0.00 0.00 94 1017.6
20220123102337 50 317 0.0 3.0 0.00 0.00 0.00 94 1017.6
20220123101841 50 299 0.0 3.0 0.00 0.00 0.00 93 1017.6
20220123101348 51 343 1.0 3.0 0.00 0.00 0.00 93 1017.6
20220123100856 51 293 1.0 3.0 0.00 0.00 0.00 93 1017.6
20220123100342 51 308 0.0 5.0 0.00 0.00 0.00 93 1017.6
20220123095844 51 319 0.0 5.0 0.00 0.00 0.00 93 1017.6
20220123095333 51 325 1.0 3.0 0.00 0.00 0.00 93 1017.6
20220123094900 51 336 1.0 4.0 0.00 0.00 0.00 92 1017.6
20220123094346 51 345 0.0 4.0 0.00 0.00 0.00 92 1017.5
20220123093835 51 338 1.0 4.0 0.00 0.01 0.00 92 1017.5
20220123093333 51 331 1.0 3.0 0.00 0.01 0.00 92 1017.5
20220123092841 51 333 0.0 4.0 0.00 0.01 0.00 92 1017.6
20220123092357 52 324 1.0 4.0 0.00 0.01 0.00 91 1017.6
20220123091845 52 344 1.0 3.0 0.00 0.01 0.00 92 1017.6
20220123091347 52 345 0.0 4.0 0.00 0.01 0.00 92 1017.6
20220123090834 52 347 0.0 4.0 0.00 0.01 0.00 92 1017.6
20220123090400 52 320 1.0 4.0 0.00 0.01 0.00 92 1017.6
20220123085846 52 315 1.0 3.0 0.00 0.01 0.00 92 1017.6
20220123085334 53 327 1.0 3.0 0.00 0.01 0.00 92 1017.6
20220123084835 53 327 0.0 3.0 0.00 0.01 0.00 92 1017.6
20220123084342 53 335 0.0 3.0 0.00 0.01 0.00 92 1017.3
20220123083857 53 321 1.0 2.0 0.00 0.01 0.00 92 1017.3
20220123083343 53 336 0.0 4.0 0.00 0.01 0.00 92 1017.3
20220123082858 53 337 1.0 4.0 0.00 0.01 0.00 92 1017.2
20220123082336 53 321 1.0 4.0 0.00 0.01 0.00 92 1017.2
20220123081842 53 335 1.0 4.0 0.00 0.01 0.00 92 1017.2
20220123081350 53 339 1.0 4.0 0.00 0.01 0.00 92 1017.3
20220123080835 53 336 1.0 3.0 0.00 0.01 0.00 92 1017.3
20220123080338 53 359 1.0 4.0 0.00 0.01 0.00 92 1017.3
20220123075847 53 342 0.0 4.0 0.00 0.01 0.00 92 1017.5
20220123075355 53 328 1.0 3.0 0.00 0.01 0.00 92 1017.5
20220123074841 54 319 1.0 3.0 0.00 0.01 0.00 92 1017.5
20220123074344 54 345 0.0 3.0 0.00 0.01 0.00 92 1017.6
20220123073852 54 342 0.0 3.0 0.00 0.01 0.00 92 1017.6
20220123073333 54 359 1.0 2.0 0.00 0.01 0.00 92 1017.6
20220123072847 54 334 1.0 3.0 0.00 0.01 0.00 92 1018.0
20220123072335 54 322 0.0 3.0 0.00 0.01 0.00 92 1018.0
20220123071838 54 355 0.0 4.0 0.00 0.01 0.00 92 1018.0
20220123071330 54 328 0.0 4.0 0.00 0.01 0.00 92 1018.0
20220123070900 54 1 1.0 2.0 0.00 0.01 0.00 92 1018.0
20220123070347 54 307 1.0 2.0 0.00 0.01 0.00 92 1018.0
20220123065834 54 341 0.0 4.0 0.00 0.01 0.00 92 1018.0
20220123065340 55 330 2.0 4.0 0.00 0.01 0.00 91 1018.0
20220123064845 55 340 1.0 3.0 0.00 0.01 0.00 92 1018.0
20220123064351 55 343 0.0 3.0 0.00 0.01 0.00 92 1018.1
20220123063838 55 342 0.0 4.0 0.00 0.01 0.00 92 1018.1
20220123063346 55 350 0.0 4.0 0.00 0.01 0.00 92 1018.1